Japanese version Home page |
Updated on February 10, 2013 |
Profile
|
Orbital ElementsEpoch 2005 Aug. 18.0 TT = JDT 2453600.5 T 2005 Aug. 12.56583 TT MPC q 2.3450727 (2000.0) P Q n 0.10333837 Peri. 357.31559 -0.60390564 -0.76968727 a 4.4974013 Node 129.73897 +0.73620964 -0.63820812 e 0.4785716 Incl. 15.62195 +0.30543959 +0.01648930 P 9.54 From 49 observations 2005 Nov. 1-2012 Aug. 16, mean residual 0".20.
|
Magnitudes Graphm1 = 15.0 + 5 log d + 7.5 log r
|
The orbital elements are published on M.P.E.C. 2012-R30.
|